Fargo, ND

5:26 AM CST on November 23, 2017 (GMT -0600)
Hector International

Weather History for KFAR - December, 2012

Change the Weather History Date:

Sunday, December 30, 2012

  Actual Average Record
Temperature  
Mean Temperature 14 °F 10 °F  
Max Temperature 21 °F 19 °F 42 °F (1929)
Min Temperature 6 °F 2 °F -29 °F (1976)
Degree Days  
Heating Degree Days 51 55  
Month to date heating degree days 1487 1524  
Since 1 July heating degree days 3396 3486  
Cooling Degree Days 0 0  
Month to date cooling degree days 0 0  
Year to date cooling degree days 795 551  
Moisture  
Dew Point 7 °F    
Average Humidity 76    
Maximum Humidity 84    
Minimum Humidity 67    
Precipitation  
Precipitation T in 0.02 in 0.63 in (1972)
Month to date precipitation 0.37 0.80  
Year to date precipitation 14.52 22.58  
Snow  
Snow T in 0.40 in 8.80 in (2008)
Month to date snowfall 5.1 10.8  
Since 1 July snowfall 13.5 19.4  
Snow Depth 3.00 in    
Sea Level Pressure  
Sea Level Pressure 30.05 in    
Wind  
Wind Speed 10 mph (SSW)    
Max Wind Speed 24 mph    
Max Gust Speed 29 mph    
Visibility 8 miles    
Events Snow    
T = Trace of Precipitation, MM = Missing Value Source: NWS Daily Summary

Daily Weather History Graph

Daily Weather History Graph

Search for Another Location

Airport or City:

Trip Planner

Search our weather history database for the weather conditions in past years. The results will help you decide how hot, cold, wet, or windy it might be!

Date:

Astronomy

Dec. 30, 2012 Rise Set
Actual Time 8:12 AM CST 4:47 PM CST
Civil Twilight 7:37 AM CST 5:22 PM CST
Nautical Twilight 6:58 AM CST 6:01 PM CST
Astronomical Twilight 6:21 AM CST 6:38 PM CST
Moon 7:30 PM CST (12/30) 9:13 AM CST (12/30)
Length of Visible Light 9h 45m
Length of Day
8h 34m
Waning Gibbous, 95% of the Moon is Illuminated
Dec 30
Waning Gibbous
Jan 4
Last Quarter
Jan 11
New
Jan 18
First Quarter
Jan 26
Full

Hourly Weather History & Observations

Time (CST) Temp. Windchill Dew Point Humidity Pressure Visibility Wind Dir Wind Speed Gust Speed Precip Events Conditions
12:53 AM 9.0 °F -3.2 °F 3.0 °F 77% 30.14 in 10.0 mi South 8.1 mph - N/A   Overcast
1:53 AM 10.0 °F -1.9 °F 3.9 °F 76% 30.12 in 10.0 mi South 8.1 mph - N/A   Overcast
2:09 AM 10.4 °F -4.1 °F 3.2 °F 73% 30.06 in 10.0 mi South 11.5 mph - N/A   Overcast
2:39 AM 10.4 °F -4.8 °F 3.2 °F 73% 30.06 in 9.0 mi South 12.7 mph - N/A   Overcast
2:53 AM 10.0 °F -4.5 °F 3.9 °F 76% 30.13 in 9.0 mi South 11.5 mph - N/A   Overcast
3:53 AM 9.0 °F -2.2 °F 5.0 °F 84% 30.12 in 5.0 mi SSE 6.9 mph - N/A   Overcast
4:53 AM 9.0 °F -3.2 °F 5.0 °F 84% 30.10 in 5.0 mi SSE 8.1 mph - N/A   Overcast
5:53 AM 9.0 °F -7.3 °F 5.0 °F 84% 30.09 in 3.0 mi South 13.8 mph - N/A   Overcast
6:09 AM 8.6 °F -3.7 °F 5.0 °F 85% 30.01 in 6.0 mi SSE 8.1 mph - N/A   Clear
6:53 AM 8.1 °F -6.2 °F 3.0 °F 80% 30.08 in 9.0 mi SSE 10.4 mph - N/A   Clear
7:53 AM 6.1 °F -9.5 °F 1.0 °F 80% 30.06 in 9.0 mi SSE 11.5 mph - N/A   Clear
8:53 AM 7.0 °F -8.3 °F 1.9 °F 80% 30.06 in 7.0 mi South 11.5 mph - N/A   Clear
9:53 AM 9.0 °F -5.1 °F 1.9 °F 73% 30.05 in 8.0 mi SSE 10.4 mph - N/A   Clear
10:53 AM 10.9 °F -4.7 °F 3.9 °F 73% 30.04 in 9.0 mi South 13.8 mph - N/A   Clear
11:53 AM 15.1 °F 1.1 °F 8.1 °F 74% 29.99 in 10.0 mi South 12.7 mph - N/A   Clear
12:53 PM 18.0 °F 5.4 °F 10.0 °F 71% 29.94 in 10.0 mi South 11.5 mph - N/A   Clear
1:53 PM 17.1 °F 10.0 °F 10.0 °F 74% 29.94 in 10.0 mi South 4.6 mph - N/A   Clear
2:53 PM 18.0 °F 9.8 °F 10.0 °F 71% 29.94 in 10.0 mi SSW 5.8 mph - N/A   Clear
3:53 PM 17.1 °F - 9.0 °F 71% 29.96 in 10.0 mi Calm Calm - N/A   Scattered Clouds
4:41 PM 15.8 °F 8.6 °F 8.6 °F 73% 29.91 in 10.0 mi West 4.6 mph - N/A   Mostly Cloudy
4:53 PM 15.1 °F 7.7 °F 8.1 °F 74% 29.98 in 8.0 mi WNW 4.6 mph - N/A   Overcast
5:13 PM 15.8 °F 7.2 °F 8.6 °F 73% 29.92 in 10.0 mi WNW 5.8 mph - N/A   Overcast
5:42 PM 17.6 °F 7.3 °F 10.4 °F 73% 29.94 in 10.0 mi NW 8.1 mph - N/A   Overcast
5:53 PM 18.0 °F 8.7 °F 10.9 °F 74% 30.01 in 10.0 mi NW 6.9 mph - N/A   Overcast
6:53 PM 19.9 °F 7.3 °F 15.1 °F 81% 30.04 in 10.0 mi NNW 12.7 mph - N/A   Overcast
7:53 PM 19.0 °F 4.5 °F 12.9 °F 77% 30.08 in 8.0 mi North 16.1 mph - N/A   Overcast
8:53 PM 18.0 °F 4.8 °F 12.0 °F 78% 30.10 in 3.0 mi NNW 12.7 mph - 0.00 in Snow Light Snow
9:53 PM 18.0 °F 4.8 °F 10.9 °F 74% 30.12 in 10.0 mi NNW 12.7 mph - 0.00 in   Overcast
10:24 PM 17.6 °F 1.7 °F 8.6 °F 68% 30.05 in 10.0 mi NNW 18.4 mph - N/A   Overcast
10:53 PM 17.1 °F 1.0 °F 9.0 °F 71% 30.13 in 10.0 mi NNW 18.4 mph - N/A   Overcast
11:48 PM 12.2 °F -2.5 °F 6.8 °F 79% 30.11 in 2.5 mi North 12.7 mph - 0.00 in Snow Light Snow
11:53 PM 12.9 °F -2.8 °F 7.0 °F 77% 30.17 in 4.0 mi North 15.0 mph - 0.00 in Snow Light Snow